Change the Weather History Date:

Thursday, October 18, 2012

  Actual Average Record
Temperature  
Mean Temperature 77 °F -  
Max Temperature 86 °F 83 °F 90 °F (1985)
Min Temperature 70 °F 69 °F 56 °F (1954)
Cooling Degree Days 12    
Growing Degree Days 27 (Base 50)    
Moisture  
Dew Point 70 °F    
Average Humidity 82    
Maximum Humidity 97    
Minimum Humidity 53    
Precipitation  
Precipitation 0.01 in - - ()
Sea Level Pressure  
Sea Level Pressure 29.86 in    
Wind  
Wind Speed 3 mph (SSE)    
Max Wind Speed 10 mph    
Max Gust Speed -    
Visibility 10 miles    
Events Rain    
Averages and records for this station are not official NWS values.
T = Trace of Precipitation, MM = Missing Value Source: NWS Daily Summary

Daily Weather History Graph

Daily Weather History Graph

Search for Another Location

Airport or City:

Trip Planner

Search our weather history database for the weather conditions in past years. The results will help you decide how hot, cold, wet, or windy it might be!

Date:

Astronomy

Oct. 18, 2012 Rise Set
Actual Time 7:33 AM EDT 6:58 PM EDT
Civil Twilight 7:09 AM EDT 7:21 PM EDT
Nautical Twilight 6:42 AM EDT 7:49 PM EDT
Astronomical Twilight 6:14 AM EDT 8:16 PM EDT
Moon 10:56 AM EDT 9:48 PM EDT
Length of Visible Light 12h 12m
Length of Day
11h 24m
Waxing Crescent, 14% of the Moon is Illuminated
Oct 18
Waxing Crescent
Oct 21
First Quarter
Oct 29
Full
Nov 6
Last Quarter
Nov 13
New

Hourly Weather History & Observations

Time (EDT) Temp. Heat Index Dew Point Humidity Pressure Visibility Wind Dir Wind Speed Gust Speed Precip Events Conditions
12:53 AM 72.0 °F - 68.0 °F 87% 29.87 in 10.0 mi ESE 3.5 mph - N/A   Scattered Clouds
1:53 AM 71.1 °F - 68.0 °F 90% 29.85 in 10.0 mi Calm Calm - N/A   Clear
2:53 AM 70.0 °F - 68.0 °F 93% 29.83 in 8.0 mi SSE 3.5 mph - N/A   Clear
3:53 AM 70.0 °F - 69.1 °F 97% 29.82 in 7.0 mi South 3.5 mph - N/A   Clear
4:53 AM 70.0 °F - 69.1 °F 97% 29.83 in 7.0 mi Calm Calm - N/A   Clear
5:53 AM 71.1 °F - 70.0 °F 96% 29.85 in 10.0 mi Calm Calm - N/A   Clear
6:53 AM 72.0 °F - 70.0 °F 93% 29.86 in 10.0 mi East 3.5 mph - N/A   Overcast
7:53 AM 73.0 °F - 71.1 °F 93% 29.88 in 10.0 mi Calm Calm - N/A   Overcast
8:53 AM 73.9 °F - 71.1 °F 91% 29.91 in 10.0 mi Calm Calm - 0.00 in Rain Light Rain
8:55 AM 73.4 °F - 71.6 °F 94% 29.91 in 9.0 mi Calm Calm - 0.00 in Rain Light Rain
9:25 AM 73.4 °F - 69.8 °F 88% 29.91 in 10.0 mi Calm Calm - 0.01 in   Mostly Cloudy
9:53 AM 73.9 °F - 72.0 °F 93% 29.90 in 10.0 mi ESE 6.9 mph - 0.01 in   Partly Cloudy
10:53 AM 78.1 °F - 72.0 °F 81% 29.90 in 10.0 mi East 4.6 mph - N/A   Clear
11:53 AM 81.0 °F 84.4 °F 70.0 °F 69% 29.88 in 10.0 mi ESE 5.8 mph - N/A   Clear
12:53 PM 82.9 °F 87.0 °F 70.0 °F 65% 29.86 in 10.0 mi ESE 5.8 mph - N/A   Partly Cloudy
1:53 PM 84.9 °F 90.7 °F 72.0 °F 65% 29.84 in 10.0 mi NNE 6.9 mph - N/A   Scattered Clouds
2:53 PM 84.9 °F 90.7 °F 72.0 °F 65% 29.82 in 10.0 mi NNE 4.6 mph - N/A   Partly Cloudy
3:53 PM 84.9 °F 87.6 °F 66.9 °F 55% 29.82 in 10.0 mi WSW 6.9 mph - N/A   Scattered Clouds
4:53 PM 84.9 °F 87.1 °F 66.0 °F 53% 29.82 in 10.0 mi WSW 8.1 mph - N/A   Clear
5:53 PM 82.9 °F 85.8 °F 68.0 °F 60% 29.83 in 10.0 mi West 10.4 mph - N/A   Partly Cloudy
6:53 PM 79.0 °F - 70.0 °F 74% 29.85 in 10.0 mi West 8.1 mph - N/A   Clear
7:53 PM 75.9 °F - 70.0 °F 82% 29.86 in 10.0 mi WNW 3.5 mph - N/A   Clear
8:53 PM 77.0 °F - 70.0 °F 79% 29.86 in 10.0 mi Calm Calm - N/A   Clear
9:53 PM 75.0 °F - 70.0 °F 84% 29.87 in 10.0 mi WSW 3.5 mph - N/A   Clear
10:53 PM 72.0 °F - 70.0 °F 93% 29.88 in 10.0 mi Calm Calm - N/A   Clear
11:53 PM 72.0 °F - 70.0 °F 93% 29.88 in 10.0 mi Calm Calm - N/A   Clear